Location: hvezdarna zebrak
(49.8744°N, 13.8989°E)
Time: 04:06:59
(UTC+01:00)

Envisat - Visible Passes

Search period start: 06 March 2026 00:00
Search period end: 16 March 2026 00:00
Orbit: 761 x 763 km, 98.4° (Epoch: 5 March)

Date Brightness Start Highest point End Pass type
(mag) Time Alt. Az. Time Alt. Az. Time Alt. Az.
6 Mar 4.7 02:48:57 10° NNE 02:51:27 30° NNE 02:51:27 30° NNE visible
6 Mar 4.6 04:28:52 10° NNW 04:31:36 19° NW 04:31:36 19° NW visible
7 Mar 5.2 02:11:24 10° NNE 02:13:20 21° NE 02:13:20 21° NE visible
7 Mar 4.2 03:50:24 10° N 03:53:28 29° NNW 03:53:28 29° NNW visible
8 Mar 5.8 01:34:27 10° NE 01:35:13 13° NE 01:35:13 13° NE visible
8 Mar 4.2 03:12:19 10° N 03:15:21 36° N 03:15:21 36° N visible
8 Mar 4.9 04:53:03 10° NNW 04:55:27 14° NW 04:55:28 14° NW visible
9 Mar 4.7 02:34:32 10° NNE 02:37:12 30° NE 02:37:12 30° NE visible
9 Mar 4.4 04:14:06 10° N 04:17:21 24° NW 04:17:21 24° NW visible
10 Mar 5.3 01:57:10 10° NE 01:59:05 19° NE 01:59:05 19° NE visible
10 Mar 3.9 03:35:48 10° N 03:39:14 37° NNW 03:39:14 37° NNW visible
11 Mar 5.9 01:20:43 10° NE 01:20:58 11° ENE 01:20:58 11° ENE visible
11 Mar 4.0 02:57:50 10° NNE 03:01:06 41° NNE 03:01:06 41° NNE visible
11 Mar 4.6 04:38:01 10° NNW 04:41:12 17° NW 04:41:14 17° NW visible
12 Mar 4.7 02:20:11 10° NNE 02:22:59 29° NE 02:22:59 29° NE visible
12 Mar 4.0 03:59:24 10° N 04:03:07 30° NW 04:03:07 30° NW visible
13 Mar 5.4 01:43:02 10° NE 01:44:51 17° ENE 01:44:51 17° ENE visible
13 Mar 3.6 03:21:15 10° N 03:25:00 46° NNW 03:25:00 46° NNW visible
13 Mar 5.0 05:02:30 10° NNW 05:04:11 12° NW 05:05:07 11° WNW visible
14 Mar 4.0 02:43:24 10° NNE 02:46:52 43° NE 02:46:52 43° NE visible
14 Mar 4.4 04:23:10 10° N 04:26:55 21° WNW 04:27:00 21° WNW visible
15 Mar 4.9 02:05:53 10° NNE 02:08:45 26° ENE 02:08:45 26° ENE visible
15 Mar 3.7 03:44:46 10° N 03:48:52 38° NW 03:48:52 38° NW visible
